Location: Arezzo
(43.4170°N, 11.8830°E)
Time: 19:07:19
(UTC+01:00)

STARLINK-2709 - Pass Details

Date: 26 October 2021
Orbit: 546 x 548 km, 53.1° (Epoch: 01 December)

Event Time Altitude Azimuth Distance (km) Brightness Sun altitude
Exits shadow 06:57:06 - 239° (WSW) 2,297 6.3 -8.5°
Reaches altitude 10° 06:58:19 10° 240° (WSW) 1,811 5.8 -8.2°
Maximum altitude 07:02:25 74° 326° (NW) 572 3.6 -7.5°
Drops below altitude 10° 07:06:34 10° 52° (NE) 1,822 6.9 -6.8°
Sets 07:08:49 0° 55° (NE) 2,718 7.9 -6.4°
